User: anonymous   Login
Location: Tierra Monte Subdivision
(35.2092°N, 106.4864°W)
Time: 14:18:11
(UTC+00:00)
Language:

CZ-2C R/B - Orbit

View from above orbital plane
View from above orbital plane
View from above satellite
View from above satellite

Ground track
Ground track

The orbit data is extracted from the following two-line orbital elements,

1 36089U 09061B   21162.93724358  .00000008  00000-0  13888-4 0  9995
2 36089  98.2034 132.0229 0080637 248.6915 179.1311 14.49860742612638
Epoch (UTC): 11 June 2021 22:29:37
Eccentricity: 0.0080637
inclination: 98.2034°
perigee height: 669 km
apogee height: 783 km
right ascension of ascending node: 132.0229°
argument of perigee: 248.6915°
revolutions per day: 14.49860742
mean anomaly at epoch: 179.1311°
orbit number at epoch: 61263

The dashed part of the orbit path shows where the satellite is in the earth's shadow,  

DLR